{"data":{"norad_id":65406,"epoch":"2026-05-24T23:31:52.290912Z","epoch_age_seconds":72697,"freshness":"FRESH","line1":"1 65406U 25192C   26144.98046633  .00011692  00000+0  40615-3 0  9993","line2":"2 65406  53.1560 238.0635 0001327  79.5595 280.5555 15.30207666 41060","mean_motion":15.30207666,"eccentricity":0.0001327,"inclination_deg":53.156,"raan_deg":238.0635,"arg_perigee_deg":79.5595,"mean_anomaly_deg":280.5555,"bstar":0.00040615,"rev_number":4106,"period_min":94.104874259596,"perigee_km":474.28274343847,"apogee_km":476.1016170029,"semimajor_km":6853.3291802207,"source":"CELESTRAK","updated_at":"2026-05-25T13:38:20.799636Z"}}